Regional Weather Roundup
Issued by NWS Kansas City/Pleasant Hill, MO

Home | Current Version | Previous Version | Text Only | Print | Product List | Glossary On
Versions: 1 2 3 4 5 6 7 8 9 10 11 12 13 14 15 16 17 18 19 20 21 22 23 24 25 26 27 28 29 30 31 32 33 34 35 36 37 38 39 40 41 42 43 44 45 46 47 48 49 50
000
ASUS43 KEAX 280410
RWREAX

WEATHER ROUNDUP FOR EASTERN KANSAS AND NORTHWEST MISSOURI
NATIONAL WEATHER SERVICE KANSAS CITY/PLEASANT HILL MO
1100 PM CDT WED MAY 27 2015

KSZ040-057-103>105-MOZ028-029-037-043-280500-
...KANSAS CITY METROPOLITAN AREA...

CITY           SKY/WX    TMP DP  RH WIND       PRES   REMARKS
K.C. INTL      CLOUDY    66  56  70 S6        30.10R
K.C. DOWNTOWN  CLOUDY    73  54  51 S5        30.09R
LEES SUMMIT    CLOUDY    71  55  56 SE3       30.11R
OLATHE - IXD   CLOUDY    69  56  62 E5        30.10S
OLATHE - OJC   CLOUDY    69  56  62 SE5       30.10R
LAWRENCE       CLOUDY    64  59  83 E5        30.09R

$$

MOZ001>008-011>017-020>025-030>033-038>040-044>046-053-054-280500-
...NORTHERN AND CENTRAL MISSOURI...

CITY           SKY/WX    TMP DP  RH WIND       PRES   REMARKS
ST. JOSEPH     MOCLDY    65  59  81 CALM      30.09R
MOSBY          CLOUDY    64  63  94 CALM      30.10R
WARRENSBURG    CLOUDY    64  57  77 CALM      30.10R
WHITEMAN AFB   NOT AVBL
CLINTON        MOCLDY    66  63  88 CALM      30.11R
SEDALIA        MOCLDY    69  57  65 SE5       30.12R
WARSAW         NOT AVBL
CHILLICOTHE      N/A     64  61  90 CALM      30.11R
KIRKSVILLE     PTCLDY    61  60  97 CALM      30.13R

$$

MOZ041-047>049-056>058-063>065-088>090-097-280500-
...EASTERN AND SOUTHERN MISSOURI...

CITY           SKY/WX    TMP DP  RH WIND       PRES   REMARKS
ST. LOUIS INTL PTCLDY    72  57  59 CALM      30.12R
SPIRIT OF STL  CLEAR     64  61  90 CALM      30.10R
COLUMBIA       CLEAR     68  58  70 E5        30.11S
JEFFERSON CITY PTCLDY    65  59  81 CALM      30.10R
ROLLA          PTCLDY    64  58  80 E5        30.11R
OSAGE BEACH    MOCLDY    63  57  82 CALM      30.10F
SPRINGFIELD    MOCLDY    70  64  81 SE5       30.10R
BRANSON        MOCLDY    68  64  88 CALM      30.11S
JOPLIN         CLOUDY    72  66  81 E5        30.08R
WEST PLAINS    TSTM      70  66  87 W5        30.15R

$$

IAZ060-094-KSZ022-034>040-054-083-096-NEZ052-066-093-280500-
...KANSAS...SOUTHEAST NEBRASKA AND IOWA...

CITY           SKY/WX    TMP DP  RH WIND       PRES   REMARKS
TOPEKA         CLOUDY    67  61  81 NE3       30.08S
MANHATTAN      CLOUDY    68  63  84 CALM      30.06F
EMPORIA        CLOUDY    69  62  78 E8        30.07S
CHANUTE        CLOUDY    73  65  75 E7        30.07R
WICHITA        CLOUDY    74  67  78 SE6       30.04S
OMAHA          CLOUDY    67  55  65 SE7       30.07R
LINCOLN        CLOUDY    65  53  65 S8        30.07S
LAMONI         PTCLDY    73  58  59 S6        30.11R
DES MOINES     PTCLDY    70  59  68 S7        30.08R

$$




USA.gov is the U.S. government's official web portal to all federal, state and local government web resources and services.